Starlink 31676

operational
NORAD ID: 59900 Int'l Des: 2024-100 Owner: SPXS Country: US Constellation: starlink
LEOCIRCULAR

关于 Starlink 31676

正在加载描述...

实时位置

正在加载3D地球...

即将过境

高度历史

Altitude vs Time

uPlot chart will show altitude changes over time

两行轨道根数

1 59900U 24100R 25354.03409744 .00000994 00000-0 45643-4 0 9998
2 59900 43.0009 215.3271 0001367 268.5493 91.5202 15.27581849 88865
Epoch: Dec 20, 2025 • Age: 8 hours

当前状态

高度 486.4 km
速度 7.63 km/s
星下点 39.92°N, 52.84°E
发射日期 May 28, 2024
运行时间 1.5 years
类型 internet

技术详情

分类 Payload
质量 730.00 kg
干质量 700.00 kg
总质量 730.00 kg
长度 0.30 m
直径 4.10 m
跨度 29.00 m
形状 Box + pan
制造商 SPXS
平台类型 Starlink V2M
阶段状态 In Orbit
所有者/国家 SPXS/US

大型星座

Loading constellations...